User: anonymous
Location: Cluny
(50.9333°N, 112.8167°W)
Time: 05:22:17
(UTC-06:00)
Language:

Cosmos 1743 Rocket - Orbit

View from above orbital plane
View from above orbital plane
View from above satellite
View from above satellite

Ground track
Ground track

The orbit data is extracted from the following two-line orbital elements,

1 16720U 86034B   14292.47699106  .00000903  00000-0  10824-3 0  5892
2 16720 082.5552 067.2177 0021619 069.1450 355.9404 14.82827514535239
Epoch (UTC): 19 October 2014 11:26:52
Eccentricity: 0.0021619
inclination: 82.5552°
perigee height: 605 km
apogee height: 635 km
right ascension of ascending node: 67.2177°
argument of perigee: 69.1450°
revolutions per day: 14.82827514
mean anomaly at epoch: 355.9404°
orbit number at epoch: 53523

The dashed part of the orbit path shows where the satellite is in the earth's shadow,  

DLR